User: anonymous   Login
Location: Unspecified
(0.0000°N, 0.0000°E)
Time: 06:43:46
(UTC+02:00)
Language:

Cosmos 1315 Rocket - Orbit

View from above orbital plane
View from above orbital plane
View from above satellite
View from above satellite

Ground track
Ground track

The orbit data is extracted from the following two-line orbital elements,

1 12904U 81103B   16239.21395217  .00000001  00000-0 -15158-5 0  9997
2 12904  81.1748 252.3784 0027543 317.3913  42.5173 15.05017018448451
Epoch (UTC): 26 August 2016 05:08:05
Eccentricity: 0.0027543
inclination: 81.1748°
perigee height: 532 km
apogee height: 570 km
right ascension of ascending node: 252.3784°
argument of perigee: 317.3913°
revolutions per day: 15.05017018
mean anomaly at epoch: 42.5173°
orbit number at epoch: 44845

The dashed part of the orbit path shows where the satellite is in the earth's shadow,  

DLR